Location: Columbus
(35.2256°N, 82.1549°W)
Time: 01:35:12
(UTC-05:00)

Envisat - Visible Passes

Search period start: 30 November 2021 00:00
Search period end: 10 December 2021 00:00
Orbit: 764 x 766 km, 98.2° (Epoch: 29 November)

Date Brightness Start Highest point End Pass type
(mag) Time Alt. Az. Time Alt. Az. Time Alt. Az.
30 Nov 4.6 04:46:59 10° NNE 04:51:32 33° E 04:56:02 10° SSE visible
30 Nov 4.0 06:26:17 10° NNW 06:30:20 25° WNW 06:34:23 10° WSW visible
30 Nov 5.6 17:37:43 10° SSW 17:41:51 25° W 17:46:01 10° NW visible
01 Dec 5.9 04:11:54 10° ENE 04:14:24 14° E 04:16:53 10° ESE visible
01 Dec 3.0 05:48:45 10° N 05:53:43 57° WNW 05:58:40 10° SSW visible
02 Dec 3.5 05:11:53 10° NNE 05:16:54 60° E 05:21:54 10° S visible
02 Dec 4.5 06:52:47 10° NNW 06:55:21 14° WNW 06:57:55 10° W visible
02 Dec 6.1 18:04:54 10° WSW 18:07:22 14° W 18:09:51 10° WNW visible
03 Dec 5.1 04:35:45 10° NE 04:39:55 25° E 04:44:03 10° SSE visible
03 Dec 3.7 06:14:26 10° N 06:18:52 31° WNW 06:23:18 10° SW visible
04 Dec 2.8 05:37:07 10° N 05:42:12 74° WNW 05:47:14 10° SSW visible
05 Dec 4.0 05:00:27 10° NNE 05:05:20 46° E 05:10:11 10° S visible
05 Dec 4.3 06:40:34 10° NNW 06:43:56 18° WNW 06:47:18 10° WSW visible
05 Dec 5.9 17:52:19 10° SW 17:55:43 18° W 17:59:07 10° NW visible
06 Dec 5.4 04:24:39 10° NE 04:28:17 19° E 04:31:52 10° SE visible
06 Dec 3.3 06:02:40 10° N 06:07:23 40° WNW 06:12:06 10° SW visible
07 Dec 2.9 05:25:33 10° NNE 05:30:39 85° ESE 05:35:44 10° SSW visible
08 Dec 4.5 04:49:06 10° NNE 04:53:44 35° E 04:58:20 10° SSE visible
08 Dec 4.0 06:28:34 10° NNW 06:32:30 23° WNW 06:36:25 10° WSW visible
08 Dec 5.7 17:40:05 10° SSW 17:44:04 23° W 17:48:04 10° NW visible
09 Dec 5.8 04:13:48 10° ENE 04:16:37 15° E 04:19:26 10° SE visible
09 Dec 3.0 05:50:58 10° N 05:55:53 52° WNW 06:00:48 10° SSW visible
